Location: Bakov nad Jizerou
(50.4784°N, 14.9394°E)
Time: 22:11:16
(UTC+00:00)

NOSS 0 Rocket - Pass Details

Date: 16 June 2021
Orbit: 934 x 956 km, 70.0° (Epoch: 23 July)

Event Time Altitude Azimuth Distance (km) Brightness Sun altitude
Exits shadow 22:01:27 21° 179° (S) 1,989 5.0 -15.0°
Maximum altitude 22:05:26 51° 112° (ESE) 1,177 4.2 -15.1°
Drops below altitude 10° 22:11:27 10° 38° (NE) 2,690 6.9 -15.3°
Sets 22:14:03 0° 34° (NE) 3,641 7.7 -15.4°
